Location: *
(42.0175°N, 9.4056°E)
Time: 08:34:37
(UTC+00:00)

Cosmos 2082 Rocket - Pass Details

Date: 25 August 2019
Orbit: 831 x 855 km, 71.0° (Epoch: 23 September)

Event Time Altitude Azimuth Distance (km) Brightness Sun altitude
Rises 19:25:25 0° 177° (S) 3,366 5.0 -14.1°
Reaches altitude 10° 19:28:01 10° 169° (S) 2,440 4.2 -14.5°
Maximum altitude 19:33:03 36° 105° (ESE) 1,315 2.7 -15.4°
Drops below altitude 10° 19:38:09 10° 41° (NE) 2,469 4.5 -16.2°
Sets 19:40:47 0° 33° (NNE) 3,413 5.4 -16.6°
